#timestamp,LO_Frequency,Hit,StdDev 
1634349615.2,286046990.3,Y
1634349635.9,286046996.3,P
1634349655.7,286046994.5,P
1634349675.6,286046989.5,P
1634349695.4,286046984.4,Y
1634349715.2,286046992.8,P
1634349735.1,286046989.8,P
1634349736.0,286046989.8,P
1634349755.8,286046989.9,Y
1634349775.7,286046995.0,P
1634349795.5,286046997.5,N
1634349815.3,286046998.7,N
1634349835.2,286047001.0,N
1634349855.0,286047000.6,N
1634349855.9,286047000.6,N
1634349875.8,286046998.7,N
1634349895.6,286046993.5,N
1634349915.4,286046994.1,N
1634349935.3,286046992.2,N
1634349955.1,286046994.0,N
1634349975.8,286046996.0,N
1634349995.7,286046994.9,N
1634350015.5,286046996.8,N
1634350035.4,286046995.4,N
1634350055.2,286046999.6,N
1634350075.0,286047000.7,N
1634350075.9,286047000.7,N
1634350095.8,286047001.5,N
1634350115.6,286047009.0,N
1634350135.4,286047010.5,N
1634350155.3,286047011.4,N
1634350175.1,286047012.6,N
1634350195.9,286047014.1,N
1634350215.7,286047015.2,N
1634350235.5,286047015.5,N
1634350255.4,286047011.4,N
1634350275.2,286047013.1,N
1634350295.0,286047009.8,N
1634350295.9,286047009.8,N
1634350315.8,286047008.6,N
1634350335.6,286047009.3,N
1634350355.5,286047010.6,N
1634350375.3,286047009.4,N
1634350395.1,286047013.6,N
1634350415.9,286047012.7,N
1634350435.7,286047013.8,N
1634350455.6,286047017.2,N
1634350475.4,286047017.9,N
1634350495.2,286047018.0,N
1634350515.1,286047018.1,N
1634350516.0,286047018.1,N
1634350535.8,286047017.3,N
1634350555.7,286047020.3,Y
1634350575.5,286047010.0,P
1634350595.3,286047010.7,P
1634350615.2,286047009.3,P
1634350635.0,286047010.4,Y
1634350635.9,286047010.4,P
1634350655.8,286046996.7,P
1634350675.6,286046996.7,N
1634350695.4,286046996.8,N
1634350715.3,286046999.3,N
1634350735.1,286047000.6,N
1634350755.8,286047000.5,N
1634350775.7,286047001.4,N
1634350795.5,286047002.0,N
1634350815.3,286047004.3,N
1634350835.2,286047005.8,N
1634350855.0,286047009.1,N
1634350855.9,286047009.1,N
1634350875.8,286047007.7,N
1634350895.6,286047014.0,N
1634350915.4,286047017.1,Y
1634350935.3,286047009.0,P
1634350955.1,286047007.5,P
1634350975.9,286047004.7,N
1634350995.7,286047010.8,Y
1634351015.5,286046999.8,P
1634351035.4,286046998.9,N
1634351055.2,286046996.8,N
1634351075.1,286046995.3,N
1634351076.0,286046995.3,N
1634351095.8,286046993.8,N
1634351115.6,286046991.7,N
1634351135.5,286046994.2,N
1634351155.3,286046994.3,N
1634351175.1,286046994.3,N
1634351195.9,286046993.2,N
1634351215.7,286046990.4,N
1634351235.5,286046989.2,N
1634351255.4,286046987.9,N
1634351275.2,286046986.4,Y
1634351295.1,286046989.6,P
1634351296.0,286046989.6,P
1634351315.8,286046987.0,P
1634351335.6,286046987.6,Y
1634351355.5,286046998.6,P
1634351375.3,286046998.6,N
1634351395.2,286046998.2,N
1634351415.9,286047001.1,N
1634351435.7,286047001.0,N
1634351455.6,286047002.5,N
1634351475.4,286047002.5,N
1634351495.2,286047000.6,N
1634351515.1,286047001.7,N
1634351516.0,286047001.7,N
1634351535.8,286047002.6,N
1634351555.7,286047005.9,N
1634351575.5,286047003.5,N
1634351595.3,286047005.0,N
1634351615.2,286047008.9,N
1634351635.0,286047009.8,N
1634351635.9,286047009.8,N
1634351655.7,286047011.8,N
1634351675.6,286047013.8,N
1634351695.4,286047012.0,N
1634351715.3,286047009.3,N
1634351735.1,286047011.9,N
1634351736.0,286047011.9,N
1634351755.8,286047007.0,N
1634351775.7,286047004.6,N
1634351795.5,286047004.1,N
1634351815.3,286047003.8,N
1634351835.2,286047003.1,N
1634351855.0,286047002.0,N
1634351855.9,286047002.0,N
1634351875.8,286047002.4,N
1634351895.6,286047004.4,N
1634351915.4,286047007.1,N
1634351935.3,286047012.2,Y
1634351955.1,286047005.2,P
1634351975.8,286047003.5,P
1634351995.7,286047003.3,P
1634352015.5,286047007.1,Y
1634352035.4,286047003.9,P
1634352055.2,286047002.2,P
1634352075.0,286047001.1,N
1634352075.9,286047001.1,N
1634352095.8,286047001.4,N
1634352115.6,286047001.9,N
1634352135.5,286047005.2,Y
1634352155.3,286047005.6,P
1634352175.1,286047004.7,N
1634352195.9,286047013.7,P
1634352215.7,286047019.6,Y
1634352235.5,286047020.9,P
1634352255.4,286047031.8,P
1634352275.2,286047046.7,P
1634352295.1,286047061.7,Y
1634352296.0,286047061.7,P
1634352315.8,286047047.1,N
1634352335.6,286047058.2,P
1634352355.5,286047065.4,Y
1634352375.3,286047023.8,P
1634352395.1,286047032.1,N
1634352415.9,286047039.3,P
1634352435.7,286047048.6,Y
1634352455.6,286047011.2,P
1634352475.4,286047017.2,N
1634352495.2,286047015.2,N
1634352515.1,286047011.6,N
1634352516.0,286047011.6,N
1634352535.8,286047007.8,N
1634352555.7,286047007.3,N
1634352575.5,286047005.5,N
1634352595.3,286047002.8,N
1634352615.2,286047000.6,N
1634352635.9,286046999.1,N
1634352655.7,286046996.6,N
1634352675.6,286046998.6,N
1634352695.4,286046992.6,N
1634352715.2,286046989.3,N
1634352735.1,286046983.9,N
1634352736.0,286046983.9,N
1634352755.8,286046980.9,N
1634352775.7,286046978.6,N
1634352795.5,286046977.0,N
1634352815.3,286046978.3,N
1634352835.2,286046981.5,N
1634352855.0,286046984.9,N
1634352855.9,286046984.9,N
1634352875.8,286046988.8,N
1634352895.6,286046993.1,N
1634352915.4,286046992.4,N
1634352935.3,286046993.2,N
1634352955.1,286046986.9,N
1634352975.8,286046985.6,N
1634352995.7,286046983.5,N
1634353015.5,286046980.8,N
1634353035.4,286046975.9,N
1634353055.2,286046975.6,N
1634353075.0,286046971.7,N
1634353075.9,286046971.7,N
1634353095.8,286046969.2,Y
1634353115.6,286046978.1,P
1634353135.4,286046974.1,P
1634353155.3,286046969.4,P
1634353175.1,286046967.6,Y
1634353195.9,286046988.0,P
